www.pogodaiklimat.ru
ПОГОДА в Порт-Морсби

Архив погоды в Порт-Морсби (Папуа Новая Гвинея)

Время
(UTC), дата
15 26.11
18 26.11
21 26.11
00 27.11
03 27.11
06 27.11
09 27.11
12 27.11
15 27.11
18 27.11
21 27.11
00 28.11
03 28.11
06 28.11
09 28.11
12 28.11
15 28.11
18 28.11
21 28.11
00 29.11
03 29.11
06 29.11
09 29.11
12 29.11
15 29.11
18 29.11
21 29.11
03 30.11
09 30.11
12 30.11
15 30.11
18 30.11
21 30.11
00 1.12
03 1.12
09 1.12
15 1.12
18 1.12
21 1.12
00 2.12
03 2.12
06 2.12
09 2.12
12 2.12
18 2.12
21 2.12
03 3.12
06 3.12
09 3.12
Ветер
(напр.,м/с)
Видим. Явления Облачность Т
(С)
Тd
(С)
f
(%)
Тe
(С)
Тes
(С)
Комфортность P
(гПа)
Po
(гПа)
Тmin
(С)
Tmax
(С)
R
(мм)
R24
(мм)
S
(см)
штиль 0 20 км зарница {гроза} 10/6 300 м
[St Ac As]
+25.5 +24.1 92 +35 +35 очень
душно
1006.5 1000.7
штиль 1 20 км зарница {гроза} 10/4 600 м
[Sc Cs]
+25.0 +24.1 95 +34 +34 очень
душно
1005.7 999.9
штиль 0 25 км {пыльная буря} 9/5 300 м
[Sc Ac As]
+25.6 +24.1 91 +35 +36 очень
душно
1008.0 1002.2
С 3 30 км 9/5 300 м
[Sc Ac As Ci sp]
+26.0 +24.2 90 +36 +40 очень
душно
1008.6 1002.8
СЗ 4 30 км гроза, ливневой дождь 9/6 300 м
[Cb cap As op]
+28.8 +25.0 80 +42 +44 опасность
перегрева
1006.5 1000.7
СВ 2 25 км осадки на расстоянии {гроза} 9/6 300 м
[Cb cap]
+28.0 +24.1 79 +39 +41 очень
душно
1005.1 999.4
штиль 0 20 км 10/3 300 м
[Sc Ci ing]
+27.0 +24.9 88 +39 +39 очень
душно
1007.0 1001.2
штиль 0 20 км в посл. час морось 10/6 300 м
[Sc]
+26.2 +24.9 93 +37 +37 очень
душно
1008.6 1002.8
штиль 1 20 км 8/4 100 м
[St As trans]
+25.6 +25.1 97 +37 +37 очень
душно
1008.2 1001.4
штиль 0 20 км 8/4 100 м
[Sc Ac trans]
+25.0 +24.3 96 +35 +35 очень
душно
1006.2 1000.4
штиль 0 30 км 5/1 50 м
[St Ac trans Ci]
+25.4 +24.4 94 +35 +37 очень
душно
1007.8 1002.0
З 2 30 км 10/4 600 м
[Cu hum Ci fib]
+30.0 +24.4 72 +42 +49 опасность
перегрева
1008.5 1002.7
Ю 3 30 км 10/5 600 м
[Cu med, cong Ci fib]
+32.2 +25.2 67 +46 +54 опасность
перегрева
1006.4 1000.6
Ю 2 30 км осадки на расстоянии 8/6 600 м
[Cb cap Ci ing]
+30.8 +25.7 74 +45 +48 опасность
перегрева
1004.9 999.2
С 2 15 км слаб. ливневой дождь 9/8 300 м
[Cb cap Ci sp]
+26.5 +25.1 92 +38 +38 очень
душно
1007.2 1001.4
штиль 0 20 км {ливн. дождь} 9/9 200 м +25.6 +24.4 93 +36 +36 очень
душно
1007.7 1002.3 2
штиль 0 20 км 3/3 600 м
[Sc]
+25.3 +24.6 96 +36 +36 очень
душно
1006.7 1000.9
штиль 0 5000 м местами туман поземный 6/6 <50 м
[Sc]
+24.6 +24.2 98 +34 +34 очень
душно
1004.7 999.9
штиль 0 50 км ?/? +25.5 +24.1 92 +35 +35 очень
душно
1007.0 1001.2
С 1 30 км 8/4 300 м
[Cu hum Cs]
+30.2 +24.0 69 +42 +51 опасность
перегрева
1007.9 1002.1
ЮЗ 4 30 км осадки на расстоянии {пыльная буря} 10/9 300 м
[Cu med, cong Cs]
+30.1 +25.3 76 +44 +45 опасность
перегрева
1005.6 999.8
ЮЗ 3 30 км слаб. ливневой дождь {пыльная буря} 10/8 300 м
[Cb calv As trans Cs]
+31.5 +25.7 71 +46 +47 опасность
перегрева
1003.6 997.9
С 2 10 км слаб. морось {ливн. дождь} 10/8 600 м
[Sc As op]
+26.0 +24.6 92 +37 +37 очень
душно
1006.0 1000.2
С 1 10 км в посл. час морось {ливн. дождь} 10/8 600 м
[Sc As trans]
+25.0 +24.3 96 +35 +35 очень
душно
1007.1 1001.3 11
штиль 0 15 км {морось, ливн. дождь} 8/5 200 м
[St As trans]
+24.9 +24.4 97 +35 +35 очень
душно
1006.4 1000.6
С 2 5000 м туман поземный {морось} 10/10 200 м
[Frnb]
+24.5 +24.1 98 +34 +34 очень
душно
1003.9 998.2 11
штиль 0 20 км 9/4 200 м
[Sc Cs]
+24.6 +23.9 96 +34 +35 очень
душно
1005.6 999.9
ЮЗ 4 30 км 10/9 300 м
[St Cs]
+31.0 +24.5 68 +43 +44 опасность
перегрева
1005.5 999.8
С 3 20 км гроза, ливневой дождь 10/5 100 м
[Sc As op]
+25.4 +25.2 99 +37 +37 очень
душно
1005.3 999.5
штиль 0 20 км {гроза} 10/0
[Ac cast]
+25.2 +23.3 89 +34 +34 очень
душно
1006.1 1000.3 17
0 {гроза} н/о +23.7 1005.2 999.5
СЗ 1 1000 м туман поземный {пыльная буря} 5/5 300 м
[Frnb]
+24.5 +24.4 99 +34 +34 очень
душно
1004.8 999.1
штиль 0 30 км 10/5 300 м
[Sc Cs]
+25.4 +23.4 89 +34 +35 очень
душно
1006.2 1000.4
штиль 0 30 км мгла 10/4 300 м
[Cu Sc Cs]
+30.8 +24.2 68 +43 +53 опасность
перегрева
1007.4 1001.4 17 17.0
ЮВ 3 30 км 4/4 300 м
[Cu med, cong Cs]
+32.2 +25.3 67 +46 +56 опасность
перегрева
1004.7 999.0
Ю 2 20 км зарница 10/6 300 м
[Cb cap Ci sp]
+24.9 +25.6 100 +35 +35 очень
душно
1005.9 1000.1
штиль 0 20 км 6/6 200 м
[Sc]
+26.5 +25.4 94 +39 +39 очень
душно
1005.5 999.7
штиль 0 20 км 6/4 200 м
[Sc Ac trans]
+25.9 +25.3 96 +37 +37 очень
душно
1004.4 998.6
СЗ 3 25 км 9/6 50 м
[Sc Ac trans]
+25.7 +24.1 91 +36 +36 очень
душно
1007.1 1001.3
СЗ 1 30 км 9/4 300 м
[Cu hum Ac As Cs]
+29.8 +25.0 75 +43 +49 опасность
перегрева
1007.2 1001.4
СЗ 2 30 км 9/5 300 м
[Cu hum Cs]
+31.8 +25.5 69 +46 +55 опасность
перегрева
1005.5 999.7
ЮЗ 3 30 км в посл. час гроза 8/8 600 м
[Cu med, cong]
+31.4 +26.0 73 +47 +48 опасность
перегрева
1004.2 998.5
нст 2 20 км гроза без осадков 10/4 300 м
[Cu Sc As op]
+29.5 +26.1 82 +45 +45 опасность
перегрева
1006.7 1000.9
нст 1 20 км в посл. час ливневой дождь {гроза} 9/3 300 м
[St Cs]
+26.5 +24.7 90 +38 +38 очень
душно
1008.0 1002.2 0.8
С 2 20 км 8/3 200 м
[St Cs]
+25.0 +24.0 94 +34 +34 очень
душно
1006.6 1000.8
штиль 0 20 км 8/4 200 м
[St Cs]
+25.5 +24.8 96 +36 +37 очень
душно
1008.0 1002.2
З 5 30 км 9/5 300 м
[Cb cap Ci fib]
+31.5 +25.1 69 +45 +50 опасность
перегрева
1006.6 1000.6
З 1 25 км осадки на расстоянии 9/6 300 м
[Cb cap Ci sp]
+30.5 +24.9 72 +44 +46 опасность
перегрева
1005.1 999.4
З 2 20 км 8/8 300 м
[Cb cap Ci sp]
+27.5 +24.6 84 +39 +39 очень
душно
1006.7 1000.9
Местоположение метеостанции Порт-Морсби (Папуа Новая Гвинея): широта -9.38 долгота 147.21 высота над уровнем моря 48 м.
В архиве по умолчанию представлена погода в Порт-Морсби за последнюю неделю. Архивные данные за месяц целиком и за предыдущие месяцы, начиная с января 2011 года, Вы можете получить, выбрав интересующий диапазон дат из раскрывающегося списка и нажав кнопку "Найти!".
*Определитесь, кто Вы:
Внимание! Время в таблицах - всемирное. Для получения местного времени необходимо прибавить поправку, которая равна 10 ч.
Смотрите также архив погоды в соседних городах и на ближайших метеорологических станциях:
Партнеры нашего сайта:      
Пояснения к столбцам:
  • Ветер - указаны скорость ветра в м/с - средняя за 10 мин, порывы в срок и между сроками (в фигурных скобках) и направление, откуда дует ветер: С - северный,
  • СВ - северо-восточный, В - восточный, ЮВ - юго-восточный, Ю - южный, ЮЗ - юго-западный, З - западный, СЗ - северо-западный.
  • Видимость - горизонтальная дальность видимости в метрах или километрах. При видимости от 1 до 10 км при отсутствии осадков обычно наблюдается дымка, при ухудшении видимости до 1 км и менее - туман. В сухую погоду видимость может ухудшаться дымом, пылью или мглою.
  • Явления - указаны атмосферные явления, наблюдавшиеся в срок или в последний час перед сроком; фигурными скобками обозначены явления, наблюдавшиеся между сроками (за 1-3 часа до срока); квадратными скобками обозначены град или гололедные отложения с указанием их диаметра в мм.
  • Облачность - указаны через наклонную черту общая и нижняя облачность в баллах и высота нижней границы облаков в метрах; квадратными скобками обозначены формы облаков: Ci - перистые, Cs - перисто-слоистые, Cc - перисто-кучевые, Ac - высококучевые, As - высокослоистые, Sc - слоисто-кучевые, Ns - слоисто-дождевые, Cu - кучевые, Cb - кучево-дождевые. Подробнее классификацию облаков см. в Атласе облаков (PDF).
  • T - Температура воздуха - температура, измеренная на высоте 2 м над землей.
  • Td - Температура точки росы - температура, при понижении до которой содержащийся в воздухе водяной пар достигнет насыщения.
  • f - Относительная влажность воздуха - влажноcть воздуха, измеренная на высоте 2 м над землей.
  • Te - Эффективная температура - температура, которую ощущает одетый по сезону человек в тени. Характеристика душности погоды. При расчете учитывается влияние влажности воздуха и скорости ветра на теплоощущения человека.
  • Tes - Эффективная температура на солнце - температура, которую ощущает человек, с поправкой на солнечный нагрев. Характеристика знойности погоды. Зависит от высоты солнца над горизонтом, облачности и скорости ветра. Ночью, в пасмурную погоду, а также при ветре 12 м/с и более поправка равна нулю.
  • P - Атмосферное давление - приведенное к уровню моря атмосферное давление.
  • Po - Атмосферное давление - измеренное на уровне метеостанции атмосферное давление.
  • Tmin - Минимальная температура - минимум температуры воздуха на высоте 2 м над землей.
  • Tmax - Максимальная температура - максимум температуры воздуха на высоте 2 м над землей.
  • R - Количество осадков - Количество выпавших осадков за период времени, мм. При наведении курсора мыши на число - период времени, за который выпало указанное количество осадков.
  • R24 - Количество осадков - Количество выпавших осадков за 24 часа, мм.
  • S - Снежный покров - Высота снежного покрова, см. При наведении курсора мыши на число - состояние снежного покрова и степень покрытия местности в баллах.